Crystal River, FL

4:13 AM EST on December 07, 2019 (GMT -0500)
Crystal River

Weather History for KCGC - November, 2019

Change the Weather History Date:

Friday, November 15, 2019

  Actual Average (KBKV) Record (KBKV)
Temperature  
Mean Temperature 58 °F -  
Max Temperature 64 °F 75 °F 84 °F (2006)
Min Temperature 53 °F 51 °F 39 °F (2000)
Degree Days  
Heating Degree Days 6    
Growing Degree Days 8 (Base 50)    
Moisture  
Dew Point 58 °F    
Average Humidity 95    
Maximum Humidity 100    
Minimum Humidity 88    
Precipitation  
Precipitation 0.30 in - - ()
Sea Level Pressure  
Sea Level Pressure 29.97 in    
Wind  
Wind Speed 4 mph (NW)    
Max Wind Speed 13 mph    
Max Gust Speed 20 mph    
Visibility 9 miles    
Events Rain    
Averages and records for this station are not official NWS values.
T = Trace of Precipitation, MM = Missing Value Source: NWS Daily Summary

Daily Weather History Graph

Daily Weather History Graph

Search for Another Location

Airport or City:

Astronomy

Nov. 15, 2019 Rise Set
Actual Time 6:53 AM EST 5:36 PM EST
Civil Twilight 6:28 AM EST 6:01 PM EST
Nautical Twilight 5:59 AM EST 6:29 PM EST
Astronomical Twilight 5:31 AM EST 6:57 PM EST
Moon 8:18 PM EST (11/15) 9:40 AM EST (11/15)
Length of Visible Light 11h 33m
Length of Day
10h 43m
Waning Gibbous, 90% of the Moon is Illuminated
Nov 15
Waning Gibbous
Nov 19
Last Quarter
Nov 26
New
Dec 4
First Quarter
Dec 12
Full

Hourly Weather History & Observations

Time (EST) Temp. Dew Point Humidity Pressure Visibility Wind Dir Wind Speed Gust Speed Precip Events Conditions
12:15 AM 64.4 °F 62.6 °F 94% 30.02 in 10.0 mi Calm Calm - N/A   Overcast
12:35 AM 64.4 °F 62.6 °F 94% 30.00 in 10.0 mi ENE 3.5 mph - N/A   Overcast
12:55 AM 64.4 °F 62.6 °F 94% 30.00 in 10.0 mi East 4.6 mph - N/A   Overcast
1:35 AM 64.4 °F 62.6 °F 94% 29.98 in - ENE 4.6 mph - N/A   Overcast
1:55 AM 64.4 °F 62.6 °F 94% 29.97 in - ENE 5.8 mph - N/A   Overcast
2:15 AM 64.4 °F 62.6 °F 94% 29.98 in - Calm Calm - N/A   Overcast
2:35 AM 64.4 °F 62.6 °F 94% 29.97 in - ENE 3.5 mph - N/A   Overcast
2:55 AM 64.4 °F 62.6 °F 94% 29.96 in - NNE 4.6 mph - N/A   Overcast
3:15 AM 64.4 °F 62.6 °F 94% 29.96 in - NNW 3.5 mph - N/A   Overcast
3:35 AM 62.6 °F 62.6 °F 100% 29.96 in - North 5.8 mph - N/A   Overcast
4:15 AM 60.8 °F 59.0 °F 94% 29.98 in 4.0 mi NNW 6.9 mph - 0.02 in Rain Light Rain
4:35 AM 59.0 °F 57.2 °F 94% 29.98 in 10.0 mi Calm Calm - 0.04 in Rain Light Rain
4:55 AM 59.0 °F 57.2 °F 94% 29.98 in 7.0 mi Calm Calm - 0.06 in Rain Rain
5:15 AM 59.0 °F 59.0 °F 100% 30.00 in 10.0 mi Calm Calm - 0.01 in Rain Light Rain
5:35 AM 59.0 °F 59.0 °F 100% 30.01 in - Calm Calm - 0.13 in   Unknown
5:55 AM 60.8 °F 60.8 °F 100% 29.99 in 7.0 mi Calm Calm - 0.21 in Rain Rain
6:15 AM 60.8 °F 60.8 °F 100% 29.99 in 10.0 mi Calm Calm - 0.01 in Rain Light Rain
6:35 AM 62.6 °F 60.8 °F 94% 29.99 in 10.0 mi Calm Calm - 0.01 in   Light Drizzle
6:55 AM 62.6 °F 62.6 °F 100% 29.98 in 10.0 mi Calm Calm - 0.02 in   Overcast
7:15 AM 62.6 °F 62.6 °F 100% 29.96 in 1.2 mi Calm Calm - N/A Rain Light Rain
7:35 AM 62.6 °F 62.6 °F 100% 29.97 in 10.0 mi Calm Calm - N/A   Overcast
7:55 AM 62.6 °F 62.6 °F 100% 29.97 in 10.0 mi Calm Calm - N/A   Light Drizzle
8:15 AM 62.6 °F 62.6 °F 100% 29.98 in 10.0 mi NNW 3.5 mph - N/A   Overcast
8:35 AM 62.6 °F 62.6 °F 100% 29.98 in 10.0 mi NNE 3.5 mph - N/A   Overcast
8:55 AM 62.6 °F 62.6 °F 100% 29.98 in 10.0 mi NNW 5.8 mph - N/A   Overcast
9:15 AM 62.6 °F 60.8 °F 94% 29.99 in 10.0 mi NNW 3.5 mph - N/A   Overcast
9:35 AM 60.8 °F 60.8 °F 100% 29.99 in 10.0 mi North 5.8 mph - N/A   Overcast
9:55 AM 60.8 °F 60.8 °F 100% 29.99 in 10.0 mi North 3.5 mph - N/A Rain Light Rain
10:15 AM 60.8 °F 60.8 °F 100% 29.98 in 10.0 mi Calm Calm - N/A Rain Light Rain
10:35 AM 60.8 °F 60.8 °F 100% 29.99 in 10.0 mi Calm Calm - 0.01 in Rain Light Rain
10:55 AM 60.8 °F 60.8 °F 100% 29.98 in 10.0 mi Calm Calm - 0.01 in   Light Drizzle
11:15 AM 62.6 °F 60.8 °F 94% 29.98 in 10.0 mi Calm Calm - N/A   Overcast
11:35 AM 62.6 °F 60.8 °F 94% 29.97 in 10.0 mi Calm Calm - N/A   Overcast
11:55 AM 62.6 °F 60.8 °F 94% 29.97 in 10.0 mi Calm Calm - N/A   Overcast
12:15 PM 62.6 °F 60.8 °F 94% 29.96 in 10.0 mi West 8.1 mph - N/A   Overcast
12:35 PM 60.8 °F 59.0 °F 94% 29.96 in 10.0 mi West 9.2 mph - N/A   Overcast
12:55 PM 59.0 °F 57.2 °F 94% 29.96 in 10.0 mi West 6.9 mph - N/A   Overcast
1:15 PM 59.0 °F 59.0 °F 100% 29.95 in 7.0 mi West 8.1 mph - N/A   Overcast
1:35 PM 59.0 °F 57.2 °F 94% 29.95 in 7.0 mi West 10.4 mph - N/A   Overcast
1:55 PM 59.0 °F 57.2 °F 94% 29.95 in 7.0 mi West 10.4 mph - N/A   Overcast
2:15 PM 59.0 °F 57.2 °F 94% 29.95 in 2.5 mi West 8.1 mph - N/A   Overcast
2:35 PM 59.0 °F 57.2 °F 94% 29.95 in 5.0 mi West 9.2 mph - N/A   Overcast
2:55 PM 59.0 °F 55.4 °F 88% 29.95 in 10.0 mi West 5.8 mph - N/A   Overcast
3:15 PM 59.0 °F 55.4 °F 88% 29.95 in 10.0 mi West 9.2 mph - N/A   Overcast
3:35 PM 59.0 °F 55.4 °F 88% 29.95 in 10.0 mi West 9.2 mph - N/A   Overcast
3:55 PM 59.0 °F 55.4 °F 88% 29.96 in 10.0 mi West 12.7 mph 18.4 mph N/A   Overcast
4:15 PM 57.2 °F 53.6 °F 88% 29.96 in 10.0 mi WNW 10.4 mph 18.4 mph N/A   Overcast
4:35 PM 57.2 °F 55.4 °F 94% 29.96 in 10.0 mi WNW 8.1 mph - N/A   Overcast
4:55 PM 55.4 °F 55.4 °F 100% 29.96 in 10.0 mi WNW 5.8 mph - N/A   Overcast
5:15 PM 55.4 °F 55.4 °F 100% 29.96 in 10.0 mi WNW 6.9 mph - N/A   Overcast
5:35 PM 55.4 °F 53.6 °F 94% 29.96 in 10.0 mi WNW 6.9 mph 19.6 mph N/A   Overcast
5:55 PM 55.4 °F 53.6 °F 94% 29.96 in 10.0 mi WNW 8.1 mph - N/A   Overcast
6:15 PM 55.4 °F 53.6 °F 94% 29.96 in 10.0 mi WNW 8.1 mph 17.3 mph N/A   Overcast
6:35 PM 55.4 °F 53.6 °F 94% 29.97 in 10.0 mi WNW 5.8 mph - N/A   Overcast
6:55 PM 55.4 °F 53.6 °F 94% 29.97 in 10.0 mi WNW 3.5 mph - N/A   Overcast
7:35 PM 55.4 °F 53.6 °F 94% 29.96 in 10.0 mi WNW 6.9 mph - N/A   Overcast
7:55 PM 57.2 °F 53.6 °F 88% 29.97 in 10.0 mi WNW 5.8 mph - N/A   Overcast
8:15 PM 57.2 °F 53.6 °F 88% 29.96 in 10.0 mi West 8.1 mph - N/A   Overcast
8:55 PM 55.4 °F 53.6 °F 94% 29.97 in 10.0 mi WNW 6.9 mph - N/A   Overcast
9:35 PM 55.4 °F 53.6 °F 94% 29.97 in 10.0 mi NW 8.1 mph 18.4 mph N/A   Overcast
9:55 PM 55.4 °F 51.8 °F 88% 29.98 in 10.0 mi NW 6.9 mph - N/A   Overcast
10:15 PM 53.6 °F 51.8 °F 94% 29.97 in 10.0 mi WNW 5.8 mph - N/A   Overcast
10:35 PM 53.6 °F 51.8 °F 94% 29.97 in 10.0 mi NW 5.8 mph - N/A   Overcast
10:55 PM 53.6 °F 51.8 °F 94% 29.97 in 10.0 mi NW 5.8 mph - N/A   Overcast
11:15 PM 53.6 °F 51.8 °F 94% 29.97 in 10.0 mi WNW 5.8 mph - N/A   Overcast
11:35 PM 53.6 °F 51.8 °F 94% 29.97 in 10.0 mi WNW 5.8 mph - N/A   Overcast
11:55 PM 53.6 °F 51.8 °F 94% 29.96 in 10.0 mi WNW 4.6 mph - N/A   Overcast